Погода в Козове

Украина / Тернопольская область     49˚25′53″N   25˚09′33″E
темп.,
°C
ветер,
м/с
пор.,
м/с
влажн.,
%
обл.,
%
осадки,
мм/ч
давл.,
гПа
погр.,
м
6 декабря, вс
вс623:00+5˚юв9168575 0.0 1022637
02:00+4˚юв9158588 0.0 1023652
05:00+3˚юв91586100 0.0 1023698
08:00+3˚юв91584100 0.0 1023737
11:00+2˚юв10168191 0.0 1023748
14:00+2˚юв10168193 0.0 1022757
17:00+1˚юв10177990 0.0 1022753
20:00юв11187787 0.0 1023700
7 декабря, пн
пн723:00−1˚юв11197360 0.0 1022691
02:00−1˚юв11196946 0.0 1022693
05:00−2˚юв11196917 0.0 1021721
08:00−3˚юв1119709 0.0 1021687
11:00−2˚юв11196957 0.0 1021707
14:00−1˚юв11186329 0.0 1020792
17:00−3˚юв1018660 0.0 1021685
20:00−4˚юв10177012 0.0 1021712
8 декабря, вт
вт823:00−4˚юв10167998 0.0 1021760
02:00−3˚юв10168198 0.1 1021809
05:00−3˚юв91683100 0.1 1020755
08:00−3˚юв9148799 0.1 1021674
11:00−2˚юв81381100 0.1 1021744
14:00−2˚юв7127596 0.1 1021595
17:00−3˚юв7118097 0.0 1021566
20:00−3˚юв7128098 0.1 1022547
9 декабря, ср
ср923:00−3˚юв71185100 0.0 1022540
02:00−3˚юв61185100 0.0 1022538
05:00−3˚юв61186100 0.0 1022546
08:00−3˚вюв61084100 0.1 1022435
11:00−3˚вюв61079100 0.0 1022444
14:00−1˚вюв6107793 0.0 1020536
17:00−2˚юв7118596 0.0 1019667
20:00−1˚вюв7148798 0.0 1019547
10 декабря, чт
чт1023:00−1˚юв81590100 0.0 1018566
02:00+1˚юв71593100 0.0 1017645
05:00+2˚юв91794100 0.0 1015615
08:00+2˚юв81794100 0.6 1015616
11:00+3˚юв71495100 0.5 1015515
14:00+3˚юв61297100 0.6 1014428
17:00+4˚юв51298100 0.1 1014350
20:00+5˚вюв51298100 0.2 1014362